Regional Weather Roundup
Issued by NWS

Home | Current Version | Previous Version | Graphics & Text | Print | Product List | Glossary Off
Versions: 1 2 3 4 5 6 7 8 9 10 11 12 13 14 15 16 17 18 19 20 21 22 23 24 25 26 27 28 29 30 31 32 33 34 35 36 37 38 39 40 41 42 43 44 45 46 47 48 49 50

000
ASUS43 KMKX 220721
RWRWI

WISCONSIN REGIONAL WEATHER ROUNDUP
NATIONAL WEATHER SERVICE MILWAUKEE/SULLIVAN WI
200 AM CDT SUN OCT 22 2017

NOTE: "FAIR" INDICATES FEW OR NO CLOUDS BELOW 12,000 FEET WITH NO
SIGNIFICANT WEATHER AND/OR OBSTRUCTIONS TO VISIBILITY.

WIZ001-002-006>008-014>016-023>028-220800-
NORTHWEST WISCONSIN

CITY           SKY/WX    TMP DP  RH WIND       PRES   REMARKS
SUPERIOR ARPT  MOCLDY    52  49  89 SW12      29.77R
ASHLAND        CLOUDY    55  51  86 SW16G22   29.76R
HAYWARD        CLOUDY    53  50  89 SW7       29.80S
SIREN          MOCLDY    49  44  83 SW6       29.81F
CUMBERLAND     CLOUDY    50  45  81 W8        29.84S
RICE LAKE      CLOUDY    53  47  81 W7        29.85S
CHETEK         CLOUDY    53  51  91 W3        29.84S
LADYSMITH      RAIN      54  52  94 W9        29.84R
EAU CLAIRE     LGT RAIN  54  51  90 W8        29.82F
MENOMONIE      MOCLDY    54  48  81 W9        29.84F
NEW RICHMOND   CLOUDY    51  42  71 W8        29.86R
OSCEOLA        MOCLDY    49  44  82 SW5       29.87F
$$

WIZ003>005-009-010-017-018-220800-
NORTH CENTRAL WISCONSIN

CITY           SKY/WX    TMP DP  RH WIND       PRES   REMARKS
MANITOWISH WTR LGT RAIN  59  59 100 S8        29.79F
ARBOR VITAE    CLOUDY    60  58  94 S6        29.81F
WOODRUFF       CLOUDY    60  58  94 S6        29.81F
RHINELANDER    CLOUDY    60  60 100 S6        29.85S
EAGLE RIVER    NOT AVBL
LAND O LAKES   LGT RAIN  61  58  89 S9G24     29.85R
PHILLIPS       RAIN      59  59 100 S9        29.79F
TOMAHAWK       RAIN      58  56  96 CALM      29.85R
MEDFORD        RAIN      60  59  96 S8        29.81F
MERRILL        RAIN      61  61  99 CALM      29.85R
$$

WIZ029-030-035-036-043>047-220800-
CENTRAL WISCONSIN

CITY           SKY/WX    TMP DP  RH WIND       PRES   REMARKS
WAUSAU         LGT RAIN  60  59  96 S7        29.84F
MOSINEE        RAIN      59  59 100 SW5       29.85F
MARSHFIELD     LGT RAIN  60  58  92 S12       29.84R
STEVENS POINT  LGT RAIN  63  61  94 SW7       29.86R
WAUPACA        MOCLDY    67  59  74 S7        29.87R
WAUTOMA        CLOUDY   N/A N/A N/A S12       29.88R
WISC RAPIDS    LGT RAIN  62  60  93 S6        29.86R
CAMP DOUGLAS   NOT AVBL
$$

WIZ011>013-019>022-031-037>040-048>050-220800-
NORTHEAST WISCONSIN

CITY           SKY/WX    TMP DP  RH WIND       PRES   REMARKS
ANTIGO         CLOUDY    62  57  85 S14       29.86S
SHAWANO        CLOUDY    67  58  73 S6        29.87R
OCONTO         PTCLDY    62  57  83 S8        29.88F
STURGEON BAY   MOCLDY    61  56  83 S18G26    29.91S
GREEN BAY      PTCLDY    67  59  75 S16       29.89F
MANITOWOC      CLOUDY    59  55  87 S14       29.93F
APPLETON       CLEAR     64  54  68 S15       29.87S
CLINTONVILLE   CLOUDY    64  57  77 S7        29.86S
OSHKOSH        PTCLDY    67  58  72 S18G28    29.87F
$$

WIZ032>034-041-042-053>061-220800-
SOUTHWEST WISCONSIN

CITY           SKY/WX    TMP DP  RH WIND       PRES   REMARKS
LA CROSSE      LGT RAIN  57  54  89 NW7       29.87R
SPARTA         LGT RAIN  59  58  97 S8        29.85S
VIROQUA        CLOUDY    60  60 100 S9        29.88R
BOSCOBEL       RAIN      62  59  90 SW6       29.87S FOG
PRAIRIE DU CHI LGT RAIN  60  58  93 CALM      29.86F
PLATTEVILLE    CLOUDY    63  60  90 CALM      29.88F
$$

WIZ056-057-062-063-064-067-068-220800-
SOUTH CENTRAL WISCONSIN

CITY           SKY/WX    TMP DP  RH WIND       PRES   REMARKS
REEDSBURG      CLOUDY    64  63  99 S6        29.88R
BARABOO/DELLS  DRIZZLE   66  58  77 SW9       29.88R
LONE ROCK      LGT RAIN  63  61  93 SW5       29.88R
MINERAL POINT  LGT RAIN  63  61  94 CALM      29.89S
MADISON        CLOUDY    67  57  70 S17G25    29.87F
MIDDLETON      CLOUDY    69  58  67 S13G22    29.88S
WATERTOWN      CLOUDY    67  59  76 S14G20    29.91S
MONROE         LGT RAIN  68  55  64 S18G25    29.89F
JANESVILLE     CLOUDY    70  55  60 S20G28    29.91S
$$

WIZ051-052-058>065-066-070>072-220800-
SOUTHEAST WISCONSIN

CITY           SKY/WX    TMP DP  RH WIND       PRES   REMARKS
MILWAUKEE      MOCLDY    66  57  72 S10       29.95F
WAUKESHA       MOCLDY    64  54  68 S12G18    29.95S
MILWAUKEE/TIMM CLOUDY    66  52  59 S10G18    29.95S
RACINE         CLOUDY    62  56  80 S10       29.98F
BURLINGTON     PTCLDY    67  57  69 S12G17    29.94F
KENOSHA        CLOUDY    68  55  63 S14       29.97F
FOND DU LAC    PTCLDY    68  55  63 S12G20    29.89F
SHEBOYGAN      PTCLDY    62  58  86 S10       29.93F
WEST BEND      CLOUDY    68  54  60 S10G21    29.93F
JUNEAU         CLOUDY    66  57  71 S15G21    29.92S
$$

LSZ147-162-220800-
LAKE SUPERIOR

STATION/POSITION TIME  TEMP    WIND        PRES    WAVE
                       AIR SEA DIR/SP/G            HT/PER
                 (UTC) (F)     (DEG/KT/KT) (MB)    (FT/S)
W MID LAKE BUOY  0650   61 52              1004.9F   1/ 4
DEVILS ISLAND    0700   56     230/ 20/ 25 1006.4R
PORT WING        0520          250/ 18/ 25 1006.1
SAXON HARBOR     0630   65     200/  9/ 16 1006.1R
$$

LMZ867-665-643>646-220800-
LAKE MICHIGAN

STATION/POSITION TIME  TEMP    WIND        PRES    WAVE
                       AIR SEA DIR/SP/G            HT/PER
                 (UTC) (F)     (DEG/KT/KT) (MB)    (FT/S)
S GREEN BAY BUOY 0700   63 58  180/ 14/ 16 1011.9
N MID LAKE BUOY  0650   63 58  180/ 19/ 23 1014.1R   6/ 7
NORTHPORT PIER   0640   62     160/ 12/ 21 1013.2S
KEWAUNEE LAKESHO 0700   54     180/ 13/ 15 1012.5
SHEBOYGAN LAKESH 0700   56     180/ 19/ 20 1013.5F
PORT WASHINGTON  0630   57     190/  6/  9 1015.2S
ATWATER BUOY     0639   57 52  160/ 16/ 17 1014.2F
MILWAUKEE LAKESH 0700   57     140/ 12/ 13   N/A
S MID LAKE BUOY  0650   63 61  160/ 17/ 21 1016.1F   4/ 5
KENOSHA   LAKESH 0700   58     170/ 13/ 16 1014.6
$$

TC  - TEMPERATURE IN CELSIUS
VSB - VISIBILITY IN STATUTE MILES
WCI - WIND CHILL INDEX
HX  - HEAT INDEX




USA.gov is the U.S. government's official web portal to all federal, state and local government web resources and services.